Regional Weather Roundup
Issued by NWS

Home | Current Version | Previous Version | Graphics & Text | Print | Product List | Glossary On
Versions: 1 2 3 4 5 6 7 8 9 10 11 12 13 14 15 16 17 18 19 20 21 22 23 24 25 26 27 28 29 30 31 32 33 34 35 36 37 38 39 40 41 42 43 44 45 46 47 48 49 50
000
ASUS43 KLOT 012010
RWRIL

ILLINOIS REGIONAL WEATHER ROUNDUP
NATIONAL WEATHER SERVICE CHICAGO/ROMEOVILLE IL
300 PM CDT FRI AUG 01 2014

NOTE: "FAIR" INDICATES FEW OR NO CLOUDS BELOW 12,000 FEET WITH NO
SIGNIFICANT WEATHER AND/OR OBSTRUCTIONS TO VISIBILITY.

* THESE STATIONS ARE NOT UNDER NWS QUALITY CONTROL. THEY ALSO MAY NOT
  REPORT WEATHER SUCH AS PRECIPITATION OR FOG.

ILZ001-002-007-009-015-016-024-012100-
NORTHWEST ILLINOIS

CITY           SKY/WX    TMP DP  RH WIND       PRES   REMARKS
MOLINE         MOSUNNY   82  61  48 VRB5      30.06F HX  83
STERLING*      PTSUNNY   82  61  47 NE3       30.06F HX  83
SAVANNA*       MOSUNNY   84  52  33 NW7       30.06S HX  82
$$

ILZ003-004-008-010-011-017-018-012100-
NORTH CENTRAL ILLINOIS

CITY           SKY/WX    TMP DP  RH WIND       PRES   REMARKS
ROCKFORD       MOSUNNY   82  59  45 SW7       30.07F HX  82
FREEPORT*      SUNNY     80  62  54 SW5       30.09F HX  81
ROCHELLE*      SUNNY     80  58  47 CALM      30.07F HX  80
DE KALB*       CLOUDY    76  60  57 CALM      30.08S
PERU*          SUNNY     80  58  46 NW3       30.07F HX  81
$$

ILZ005-006-012>014-019>023-012100-
NORTHEAST ILLINOIS

CITY           SKY/WX    TMP DP  RH WIND       PRES   REMARKS
CHICAGO-OHARE  LGT RAIN  75  60  59 CALM      30.07S
CHICAGO-MIDWAY TSTM      75  64  68 SW9       30.07R
AURORA         MOSUNNY   82  60  47 VRB5      30.07S HX  82
LANSING*       PTSUNNY   75  58  55 E6        30.09R
JOLIET*        MOSUNNY   81  57  43 W6        30.07S HX  81
WAUKEGAN       MOSUNNY   80  59  48 SE12      30.06S HX  81
DUPAGE AIRPORT PTSUNNY   80  60  50 NW9       30.06S HX  81
KANKAKEE*      MOSUNNY   81  63  53 SE3       30.08S HX  82
WHEELING       MOSUNNY   75  63  66 SE6       30.08S
MORRIS*        MOSUNNY   81  61  51 W6        30.06S HX  81
ROMEOVILLE*    SUNNY     80  60  51 NW5       30.07S HX  80
NORTHERLY ISL    N/A     73  60  63 SE12        N/A
$$

LMZ740>746-012100-
SOUTHERN LAKE MICHIGAN

STATION/POSITION SKY/WX   TEMP    WIND        PRES    VSBY  WAVE
                          AIR SEA DIR/SP/G                  HT/PER
                          (F)     (DEG/KT/KT) (MB)    (MI)  (FT/S)
SOUTHERN BUOY              68 67  160/  4/  6 1018.3F         0
WAUKEGAN HARBOR            72     170/ 13/ 14   N/A
HARRISON CRIB              72     140/  7/  9   N/A
BURNHAM HARBOR             72     140/  8/ 10   N/A
CALUMET HARBOR             76     140/  5/  6 1017.2F
MICHIGAN CITY              72     130/ 12/ 18   N/A
MICHIGAN CITY 6N           72 71  170/  8/ 16   N/A           0
ST. JOSEPH                 72 70  160/  2/  2   N/A           0
$$

ILZ025>027-034>036-040-047-049-050-058-095>099-012100-
WEST-CENTRAL ILLINOIS

CITY           SKY/WX    TMP DP  RH WIND       PRES   REMARKS
QUINCY         MOSUNNY   81  61  50 CALM      30.07F HX  82
GALESBURG*     PTSUNNY   89  64  42 W6        30.07F HX  90
MACOMB*        SUNNY     80  61  51 CALM      30.09S HX  81
JACKSONVILLE*  TSTM      69  62  79 SW14      30.10F
PITTSFIELD*    PTSUNNY   75  66  74 CALM      30.09F
$$

ILZ028>032-037-038-041>044-048-051>054-059>061-012100-
CENTRAL ILLINOIS

CITY           SKY/WX    TMP DP  RH WIND       PRES   REMARKS
PONTIAC        RAIN      77  66  69 SW6       30.07S
DECATUR        CLOUDY    70  62  76 CALM      30.09S
PEORIA         PTSUNNY   83  60  45 CALM      30.06S HX  83
LACON*         MOSUNNY   78  61  54 S7        30.05F HX  80
LINCOLN*       PTSUNNY   77  64  64 S8        30.05S
SPRINGFIELD    CLOUDY    67  63  87 S6        30.09F
TAYLORVILLE    TSTM      64  61  88 W20G30    30.11R
$$

ILZ033-039-045-046-055>057-062-063-012100-
EAST-CENTRAL ILLINOIS

CITY           SKY/WX    TMP DP  RH WIND       PRES   REMARKS
CHAMPAIGN      CLOUDY    78  63  59 SW8       30.08S HX  80
DANVILLE*      PTSUNNY   77  65  65 CALM      30.06R
MATTOON          N/A     81  58  45 S3        30.06F HX  81
PARIS*         PTSUNNY   80  64  58 SE3       30.07F HX  81
$$

ILZ079-100>102-012100-
SOUTHWEST ILLINOIS

CITY           SKY/WX    TMP DP  RH WIND       PRES   REMARKS
ALTON          CLOUDY    77  68  73 VRB5      30.06S
CAHOKIA*       MOSUNNY   85  58  39 SE5       30.04F HX  84
SPARTA*        MOSUNNY   81  63  54 SE7       30.05F HX  82
$$

ILZ064>066-069>071-074>076-080>082-084>086-088>090-092>094-012100-
SOUTH-CENTRAL ILLINOIS

CITY           SKY/WX    TMP DP  RH WIND       PRES   REMARKS
CARBONDALE     MOSUNNY   82  64  54 NE3       30.05F HX  83
CAIRO*         SUNNY     86  64  48 CALM      30.05F HX  87
MARION         MOSUNNY   84  59  42 W5        30.06F HX  84
MT. VERNON     SUNNY     84  64  51 S8        30.06F HX  86
CENTRALIA*     SUNNY     93  56  28 SE3       30.05F HX  91
SALEM*         SUNNY     86  62  44 S8        30.05F HX  86
METROPOLIS*    PTSUNNY   84  59  42 NW5       30.04F HX  84
$$

ILZ067-068-072-073-078-083-087-091-012100-
SOUTHEAST ILLINOIS

CITY           SKY/WX    TMP DP  RH WIND       PRES   REMARKS
LAWRENCEVILLE  PTSUNNY   84  63  49 VRB3      30.06F HX  85
FLORA*         SUNNY     82  61  49 SE5       30.06F HX  83
FAIRFIELD*     MOSUNNY   84  66  54 S3        30.06S HX  86
HARRISBURG*    MOSUNNY   82  65  56 E6        30.07S HX  84
ROBINSON*      MOSUNNY   87  61  41 S5        30.07F HX  87
$$

ABBREVIATIONS USED IN REMARKS
   TC - TEMPERATURE IN CELSIUS
  WCI - WIND CHILL INDEX
   HX - HEAT INDEX
  VSB - VISIBILITY
$$




USA.gov is the U.S. government's official web portal to all federal, state and local government web resources and services.